When you browse on this site, cookies collect data to enhance your experience and personalize the content and advertising you see.
Visit our Privacy Policy to learn more. By continuing to use the site, you agree to this use of cookies and data.
  • en France
  • Liste des pays
  • À 7 jours
  • Température de l'eau
  • Carte satellitaire
  • Carte météo
  • Widgets météo
  • user-avatar
    Se connecter

    Météo par heure à Hrazdan

    Ce jour, 24 Mai, Vendredi

    Heure Température Précipitation Vent Pression Humidité
    00:00 +10°C° 0.3 mm 2 m/s 612 mmHg 86%
    01:00 +10°C° 0.1 mm 2 m/s 612 mmHg 86%
    02:00 +10°C° 0.1 mm 2 m/s 612 mmHg 86%
    03:00 +9°C° 0 mm 2 m/s 612 mmHg 87%
    04:00 +10°C° 0.1 mm 2 m/s 612 mmHg 86%
    05:00 +10°C° 0.1 mm 2 m/s 612 mmHg 85%
    06:00 +11°C° 0.1 mm 3 m/s 612 mmHg 84%
    07:00 +12°C° 0.1 mm 3 m/s 613 mmHg 76%
    08:00 +14°C° 0.1 mm 4 m/s 613 mmHg 68%
    09:00 +17°C° 0 mm 4 m/s 614 mmHg 61%
    10:00 +18°C° 0.2 mm 4 m/s 614 mmHg 59%
    11:00 +19°C° 0.2 mm 4 m/s 614 mmHg 57%
    12:00 +20°C° 0.2 mm 5 m/s 614 mmHg 54%
    13:00 +19°C° 1.2 mm 5 m/s 614 mmHg 57%
    14:00 +19°C° 1.2 mm 4 m/s 614 mmHg 59%
    15:00 +19°C° 1.2 mm 4 m/s 613 mmHg 62%
    16:00 +18°C° 1.5 mm 4 m/s 613 mmHg 66%
    17:00 +17°C° 1.5 mm 3 m/s 613 mmHg 71%
    18:00 +16°C° 1.5 mm 2 m/s 613 mmHg 76%
    19:00 +15°C° 0.6 mm 2 m/s 613 mmHg 77%
    20:00 +13°C° 0.6 mm 1 m/s 613 mmHg 78%
    21:00 +12°C° 0.6 mm 1 m/s 613 mmHg 80%
    22:00 +12°C° 0.2 mm 1 m/s 613 mmHg 77%
    23:00 +12°C° 0.2 mm 1 m/s 613 mmHg 75%

    Demain, 25 Mai, Samedi

    Heure Température Précipitation Vent Pression Humidité
    00:00 +12°C° 0.2 mm 1 m/s 613 mmHg 72%
    01:00 +12°C° 0 mm 1 m/s 613 mmHg 71%
    02:00 +11°C° 0 mm 1 m/s 613 mmHg 69%
    03:00 +11°C° 0 mm 1 m/s 613 mmHg 67%
    04:00 +12°C° 0 mm 1 m/s 614 mmHg 66%
    05:00 +12°C° 0 mm 2 m/s 614 mmHg 65%
    06:00 +13°C° 0 mm 2 m/s 614 mmHg 64%
    07:00 +15°C° 0 mm 2 m/s 615 mmHg 57%
    08:00 +18°C° 0 mm 3 m/s 615 mmHg 50%
    09:00 +20°C° 0 mm 4 m/s 616 mmHg 44%
    10:00 +21°C° 0 mm 4 m/s 616 mmHg 42%
    11:00 +22°C° 0 mm 5 m/s 616 mmHg 40%
    12:00 +23°C° 0 mm 6 m/s 616 mmHg 38%
    13:00 +23°C° 0 mm 6 m/s 616 mmHg 39%
    14:00 +23°C° 0 mm 6 m/s 616 mmHg 40%
    15:00 +23°C° 0 mm 6 m/s 615 mmHg 41%
    16:00 +21°C° 0.1 mm 5 m/s 615 mmHg 48%
    17:00 +20°C° 0.1 mm 3 m/s 614 mmHg 55%
    18:00 +19°C° 0.1 mm 2 m/s 613 mmHg 62%
    19:00 +17°C° 0.4 mm 2 m/s 613 mmHg 63%
    20:00 +15°C° 0.4 mm 2 m/s 613 mmHg 65%
    21:00 +13°C° 0.4 mm 2 m/s 612 mmHg 67%
    22:00 +12°C° 0.2 mm 1 m/s 612 mmHg 69%
    23:00 +12°C° 0.2 mm 1 m/s 612 mmHg 71%

    Après-demain, 26 Mai, Dimanche

    Heure Température Précipitation Vent Pression Humidité
    00:00 +11°C° 0.2 mm 1 m/s 612 mmHg 73%
    01:00 +11°C° 0 mm 1 m/s 612 mmHg 72%
    02:00 +11°C° 0 mm 1 m/s 612 mmHg 72%
    03:00 +10°C° 0 mm 1 m/s 612 mmHg 72%
    04:00 +11°C° 0 mm 1 m/s 612 mmHg 71%
    05:00 +12°C° 0 mm 1 m/s 612 mmHg 69%
    06:00 +13°C° 0 mm 1 m/s 612 mmHg 68%
    07:00 +15°C° 0 mm 2 m/s 613 mmHg 60%
    08:00 +17°C° 0 mm 2 m/s 614 mmHg 53%
    09:00 +19°C° 0 mm 2 m/s 614 mmHg 46%
    10:00 +20°C° 0 mm 3 m/s 614 mmHg 44%
    11:00 +21°C° 0 mm 4 m/s 614 mmHg 41%
    12:00 +22°C° 0 mm 5 m/s 614 mmHg 39%
    13:00 +22°C° 0 mm 5 m/s 614 mmHg 39%
    14:00 +22°C° 0 mm 5 m/s 614 mmHg 39%
    15:00 +22°C° 0 mm 5 m/s 614 mmHg 39%
    16:00 +21°C° 0.4 mm 4 m/s 613 mmHg 46%
    17:00 +20°C° 0.4 mm 3 m/s 613 mmHg 53%
    18:00 +19°C° 0.4 mm 2 m/s 613 mmHg 60%
    19:00 +16°C° 0.8 mm 2 m/s 613 mmHg 68%
    20:00 +14°C° 0.8 mm 2 m/s 612 mmHg 75%
    21:00 +10°C° 0.8 mm 2 m/s 612 mmHg 82%
    22:00 +10°C° 0.2 mm 2 m/s 612 mmHg 85%
    23:00 +9°C° 0.2 mm 2 m/s 612 mmHg 88%

    27 Mai, Lundi

    Heure Température Précipitation Vent Pression Humidité
    00:00 +8°C° 0.2 mm 2 m/s 612 mmHg 90%
    01:00 +9°C° 0 mm 1 m/s 612 mmHg 90%
    02:00 +9°C° 0 mm 1 m/s 612 mmHg 89%
    03:00 +9°C° 0 mm 1 m/s 612 mmHg 89%
    04:00 +10°C° 0 mm 1 m/s 613 mmHg 86%
    05:00 +10°C° 0 mm 1 m/s 613 mmHg 82%
    06:00 +11°C° 0 mm 1 m/s 614 mmHg 79%
    07:00 +13°C° 0 mm 1 m/s 615 mmHg 71%
    08:00 +15°C° 0 mm 1 m/s 616 mmHg 62%
    09:00 +18°C° 0 mm 1 m/s 616 mmHg 54%
    10:00 +18°C° 0.1 mm 2 m/s 616 mmHg 51%
    11:00 +18°C° 0.1 mm 2 m/s 616 mmHg 47%
    12:00 +19°C° 0.1 mm 2 m/s 616 mmHg 44%
    13:00 +19°C° 0.3 mm 2 m/s 616 mmHg 43%
    14:00 +19°C° 0.3 mm 2 m/s 616 mmHg 43%
    15:00 +20°C° 0.3 mm 2 m/s 616 mmHg 43%
    16:00 +19°C° 0.6 mm 2 m/s 616 mmHg 50%
    17:00 +18°C° 0.6 mm 2 m/s 616 mmHg 58%
    18:00 +17°C° 0.6 mm 2 m/s 616 mmHg 65%
    19:00 +15°C° 0.4 mm 2 m/s 615 mmHg 72%
    20:00 +13°C° 0.4 mm 2 m/s 615 mmHg 78%
    21:00 +10°C° 0.4 mm 2 m/s 615 mmHg 85%
    22:00 +9°C° 0.2 mm 2 m/s 615 mmHg 85%
    23:00 +9°C° 0.2 mm 2 m/s 615 mmHg 85%

    28 Mai, Mardi

    Heure Température Précipitation Vent Pression Humidité
    00:00 +8°C° 0.2 mm 2 m/s 615 mmHg 84%
    01:00 +8°C° 0 mm 2 m/s 615 mmHg 85%
    02:00 +8°C° 0 mm 2 m/s 615 mmHg 86%
    03:00 +7°C° 0 mm 2 m/s 615 mmHg 86%
    04:00 +8°C° 0 mm 2 m/s 615 mmHg 85%
    05:00 +10°C° 0 mm 1 m/s 616 mmHg 84%
    06:00 +10°C° 0 mm 1 m/s 616 mmHg 84%
    07:00 +12°C° 0 mm 1 m/s 617 mmHg 78%
    08:00 +14°C° 0 mm 2 m/s 617 mmHg 72%
    09:00 +16°C° 0 mm 2 m/s 618 mmHg 66%
    10:00 +17°C° 0.2 mm 2 m/s 618 mmHg 64%
    11:00 +17°C° 0.2 mm 2 m/s 618 mmHg 62%
    12:00 +18°C° 0.2 mm 2 m/s 618 mmHg 60%
    13:00 +18°C° 0.4 mm 2 m/s 618 mmHg 61%
    14:00 +18°C° 0.4 mm 2 m/s 618 mmHg 61%
    15:00 +19°C° 0.4 mm 2 m/s 617 mmHg 62%
    16:00 +18°C° 0.2 mm 3 m/s 617 mmHg 66%
    17:00 +17°C° 0.2 mm 3 m/s 617 mmHg 70%
    18:00 +16°C° 0.2 mm 3 m/s 617 mmHg 74%
    19:00 +14°C° 0 mm 3 m/s 617 mmHg 80%
    20:00 +12°C° 0 mm 3 m/s 616 mmHg 85%
    21:00 +10°C° 0 mm 2 m/s 616 mmHg 91%
    22:00 +10°C° 0 mm 2 m/s 616 mmHg 91%
    23:00 +9°C° 0 mm 2 m/s 616 mmHg 90%

    29 Mai, Mercredi

    Heure Température Précipitation Vent Pression Humidité
    00:00 +8°C° 0 mm 2 m/s 616 mmHg 90%
    01:00 +8°C° 0 mm 2 m/s 616 mmHg 89%
    02:00 +8°C° 0 mm 2 m/s 615 mmHg 88%
    03:00 +7°C° 0 mm 2 m/s 615 mmHg 88%
    04:00 +8°C° 0 mm 2 m/s 616 mmHg 85%
    05:00 +10°C° 0 mm 1 m/s 616 mmHg 82%
    06:00 +11°C° 0 mm 1 m/s 616 mmHg 80%
    07:00 +13°C° 0 mm 1 m/s 617 mmHg 70%
    08:00 +15°C° 0 mm 1 m/s 617 mmHg 61%
    09:00 +18°C° 0 mm 1 m/s 618 mmHg 51%
    10:00 +18°C° 0 mm 2 m/s 618 mmHg 50%
    11:00 +19°C° 0 mm 2 m/s 618 mmHg 48%
    12:00 +20°C° 0 mm 2 m/s 618 mmHg 47%
    13:00 +20°C° 0 mm 2 m/s 618 mmHg 48%
    14:00 +21°C° 0 mm 2 m/s 617 mmHg 50%
    15:00 +21°C° 0 mm 2 m/s 617 mmHg 51%
    16:00 +20°C° 0.2 mm 2 m/s 617 mmHg 57%
    17:00 +19°C° 0.2 mm 2 m/s 617 mmHg 63%
    18:00 +18°C° 0.2 mm 2 m/s 616 mmHg 69%
    19:00 +16°C° 0.1 mm 2 m/s 616 mmHg 75%
    20:00 +14°C° 0.1 mm 2 m/s 616 mmHg 82%
    21:00 +12°C° 0.1 mm 2 m/s 615 mmHg 88%
    22:00 +12°C° 0 mm 2 m/s 615 mmHg 88%
    23:00 +10°C° 0 mm 2 m/s 615 mmHg 87%
    Voir plus